World > North America > United States > Illinois

Hourly Little Mackinaw, IL Regional Weather

Feedback E-mail the Weather

Quick WX

Little Mackinaw, IL Weather Maps

°F °C°F °C
Little Mackinaw Weather Map
UTC Time: 7/2/2022, 16:34
Your Time:

Little Mackinaw, IL Regional Weather

Expires:202207021700;;558094
ASUS43 KLOT 021609
RWRIL 

ILLINOIS REGIONAL WEATHER ROUNDUP
NATIONAL WEATHER SERVICE CHICAGO/ROMEOVILLE IL
1100 AM CDT SAT JUL 02 2022

NOTE: "FAIR" INDICATES FEW OR NO CLOUDS BELOW 12,000 FEET WITH NO
SIGNIFICANT WEATHER AND/OR OBSTRUCTIONS TO VISIBILITY.

* THESE STATIONS ARE NOT UNDER NWS QUALITY CONTROL. THEY ALSO MAY NOT
  REPORT WEATHER SUCH AS PRECIPITATION OR FOG.


ILZ028>032-037-038-041>044-048-051>054-059>061-021700-
CENTRAL ILLINOIS
  
CITY           SKY/WX    TMP DP  RH WIND       PRES   REMARKS
PONTIAC        SUNNY     80  59  47 CALM      30.10R HX  81           
BLOOMINGTON    SUNNY     80  60  50 NE12      30.10R HX  81           
DECATUR        MOSUNNY   82  62  50 NE9       30.06S HX  83           
PEORIA         MOSUNNY   82  57  42 E9        30.08R HX  82           
LINCOLN*       MOSUNNY   81  58  44 NE9       30.07S HX  81           
SPRINGFIELD    MOSUNNY   82  56  40 NE7       30.07R HX  82           
TAYLORVILLE    PTSUNNY   80  64  56 E9        30.06S HX  82           
$$


SKY/WX - Weather  TMP - Temperature  DP - Dew Point  RH - Humidity
WIND - Wind Direction/Speed PRES - Barometric Pressure VSB - Visibility
WCI - Wind Chill Index E13G22 Wind - East Wind 13 mph/Gusts of 22 mph

Trending Headlines

Little Mackinaw Radar Loop



Little Mackinaw Quick Facts


National Two Day Weather Forecast


E-mail the Little Mackinaw Weather Forecast

Voice your opinion or tell us about page issues...